Time,TemperatureF,DewpointF,PressureIn,WindDirection,WindDirectionDegrees,WindSpeedMPH,WindSpeedGustMPH,Humidity,HourlyPrecipIn,Conditions,Clouds,dailyrainin,SolarRadiationWatts/m^2,SoftwareType,DateUTC
2013-08-25 00:12:00,59.0,38.0,-100.00,East,86,0.0,5.0,45,0.00,,,0.00,0.000000,,2013-08-25 07:12:00,
2013-08-25 00:22:00,59.0,38.0,-100.00,East,86,0.0,5.0,45,0.00,,,0.00,0.000000,,2013-08-25 07:22:00,
2013-08-25 00:32:00,59.0,38.0,-100.00,East,86,0.0,5.0,45,0.00,,,0.00,0.000000,,2013-08-25 07:32:00,
2013-08-25 01:12:00,60.0,42.0,-100.00,NNE,23,1.0,8.0,51,0.00,,,0.00,0.000000,,2013-08-25 08:12:00,
2013-08-25 01:21:00,60.0,42.0,-100.00,NNE,23,1.0,8.0,51,0.00,,,0.00,0.000000,,2013-08-25 08:21:00,
2013-08-25 01:32:00,60.0,42.0,-100.00,NNE,23,1.0,8.0,51,0.00,,,0.00,0.000000,,2013-08-25 08:32:00,
2013-08-25 02:11:00,59.0,40.0,-100.00,SSE,153,1.0,10.0,50,0.00,,,0.00,0.000000,,2013-08-25 09:11:00,
2013-08-25 02:22:00,59.0,40.0,-100.00,SSE,153,1.0,10.0,50,0.00,,,0.00,0.000000,,2013-08-25 09:22:00,
2013-08-25 02:34:00,59.0,40.0,-100.00,SSE,153,1.0,10.0,50,0.00,,,0.00,0.000000,,2013-08-25 09:34:00,
2013-08-25 03:12:00,60.0,41.0,-100.00,SE,134,2.0,11.0,49,0.00,,,0.00,0.000000,,2013-08-25 10:12:00,
2013-08-25 03:22:00,60.0,41.0,-100.00,SE,134,2.0,11.0,49,0.00,,,0.00,0.000000,,2013-08-25 10:22:00,
2013-08-25 03:33:00,60.0,41.0,-100.00,SE,134,2.0,11.0,49,0.00,,,0.00,0.000000,,2013-08-25 10:33:00,
2013-08-25 04:11:00,58.0,39.0,-100.00,ESE,118,0.0,7.0,50,0.00,,,0.00,0.000000,,2013-08-25 11:11:00,
2013-08-25 04:22:00,58.0,39.0,-100.00,ESE,118,0.0,7.0,50,0.00,,,0.00,0.000000,,2013-08-25 11:22:00,
2013-08-25 04:33:00,58.0,39.0,-100.00,ESE,118,0.0,7.0,50,0.00,,,0.00,0.000000,,2013-08-25 11:33:00,
2013-08-25 05:12:00,56.0,37.0,-100.00,SSE,163,0.0,4.0,49,0.00,,,0.00,0.000000,,2013-08-25 12:12:00,
2013-08-25 05:22:00,56.0,37.0,-100.00,SSE,163,0.0,4.0,49,0.00,,,0.00,0.000000,,2013-08-25 12:22:00,
2013-08-25 05:32:00,56.0,37.0,-100.00,SSE,163,0.0,4.0,49,0.00,,,0.00,0.000000,,2013-08-25 12:32:00,
2013-08-25 07:11:00,52.0,35.0,-100.00,West,269,0.0,4.0,53,0.00,,,0.00,1.000000,,2013-08-25 14:11:00,
2013-08-25 07:24:00,52.0,35.0,-100.00,West,269,0.0,4.0,53,0.00,,,0.00,1.000000,,2013-08-25 14:24:00,
2013-08-25 07:32:00,52.0,35.0,-100.00,West,269,0.0,4.0,53,0.00,,,0.00,1.000000,,2013-08-25 14:32:00,
2013-08-25 07:35:00,63.0,43.0,-100.00,North,2,0.0,3.0,48,0.00,,,0.00,96.000000,,2013-08-25 14:35:00,
2013-08-25 08:11:00,63.0,43.0,-100.00,North,2,0.0,3.0,48,0.00,,,0.00,96.000000,,2013-08-25 15:11:00,
2013-08-25 08:23:00,63.0,43.0,-100.00,North,2,0.0,3.0,48,0.00,,,0.00,96.000000,,2013-08-25 15:23:00,
2013-08-25 16:12:00,79.0,42.0,-100.00,SSW,196,6.0,14.0,27,-99.99,,,0.00,1007.000000,,2013-08-25 23:12:00,
2013-08-25 18:11:00,73.0,44.0,-100.00,SSW,196,3.0,11.0,36,-99.99,,,0.00,565.000000,,2013-08-26 01:11:00,
2013-08-25 18:22:00,73.0,44.0,-100.00,SSW,196,3.0,11.0,36,-99.99,,,0.00,565.000000,,2013-08-26 01:22:00,
2013-08-25 18:32:00,73.0,44.0,-100.00,SSW,196,3.0,11.0,36,-99.99,,,0.00,565.000000,,2013-08-26 01:32:00,
2013-08-25 19:11:00,67.0,42.0,-100.00,South,185,1.0,11.0,40,0.00,,,0.00,106.000000,,2013-08-26 02:11:00,
2013-08-25 19:21:00,67.0,42.0,-100.00,South,185,1.0,11.0,40,0.00,,,0.00,106.000000,,2013-08-26 02:21:00,
2013-08-25 19:32:00,67.0,42.0,-100.00,South,185,1.0,11.0,40,0.00,,,0.00,106.000000,,2013-08-26 02:32:00,
2013-08-25 20:11:00,61.0,42.0,-100.00,SE,133,0.0,6.0,49,0.00,,,0.00,15.000000,,2013-08-26 03:11:00,
2013-08-25 20:22:00,61.0,42.0,-100.00,SE,133,0.0,6.0,49,0.00,,,0.00,15.000000,,2013-08-26 03:22:00,
2013-08-25 20:34:00,61.0,42.0,-100.00,SE,133,0.0,6.0,49,0.00,,,0.00,15.000000,,2013-08-26 03:34:00,
2013-08-25 21:14:00,58.0,45.0,-100.00,ENE,75,0.0,4.0,62,0.00,,,0.00,0.000000,,2013-08-26 04:14:00,
2013-08-25 21:24:00,58.0,45.0,-100.00,ENE,75,0.0,4.0,62,0.00,,,0.00,0.000000,,2013-08-26 04:24:00,
2013-08-25 21:34:00,58.0,45.0,-100.00,ENE,75,0.0,4.0,62,0.00,,,0.00,0.000000,,2013-08-26 04:34:00,
2013-08-25 22:13:00,57.0,46.0,-100.00,West,264,0.0,3.0,67,0.00,,,0.00,0.000000,,2013-08-26 05:13:00,
2013-08-25 22:22:00,57.0,46.0,-100.00,West,264,0.0,3.0,67,0.00,,,0.00,0.000000,,2013-08-26 05:22:00,
2013-08-25 22:33:00,57.0,46.0,-100.00,West,264,0.0,3.0,67,0.00,,,0.00,0.000000,,2013-08-26 05:33:00,
2013-08-25 23:12:00,56.0,46.0,-100.00,NNE,23,0.0,5.0,69,0.00,,,0.00,0.000000,,2013-08-26 06:12:00,
2013-08-25 23:21:00,56.0,46.0,-100.00,NNE,23,0.0,5.0,69,0.00,,,0.00,0.000000,,2013-08-26 06:21:00,
2013-08-25 23:32:00,56.0,46.0,-100.00,NNE,23,0.0,5.0,69,0.00,,,0.00,0.000000,,2013-08-26 06:32:00,